Location: Recife
(8.0585°S, 34.8848°W)
Time: 11:21:54
(UTC-03:00)

S-56A Canister/Altair - Pass Details

Date: 16 April 2026
Orbit: 633 x 2484 km, 38.9° (Epoch: 20 May)

Event Time Altitude Azimuth Distance (km) Brightness Sun altitude
Rises 10:28:02 0° 340° (NNW) 6,100 12.3 67.7°
Reaches altitude 10° 10:34:25 10° 357° (N) 4,931 12.1 68.5°
Maximum altitude 10:42:19 17° 33° (NNE) 3,994 11.8 69.5°
Drops below altitude 10° 10:49:04 10° 70° (ENE) 4,147 11.6 70.2°
Sets 10:53:35 0° 88° (E) 4,792 11.7 70.6°
